Tracking 18980 objects as of 22-Feb-2018
HD Live streaming from Space Station
objects crossing your sky now

FENGYUN 1C DEB

Track FENGYUN 1C DEB now!
10-day predictions


NORAD ID: 31898
Int'l Code: 1999-025CKZ
Perigee: 606.1 km
Apogee: 896.7 km
Inclination: 98.6 °
Period: 99.7 minutes
Semi major axis: 7122 km
RCS: 0.0059 m2 (small)
Launch date: May 10, 1999
Source: People's Republic of China (PRC)
Launch site: Taiyaun Space Center, China (TSC)

Note: This is SATELLITE DEBRIS
aabbcc
Your satellite tracking list
Your tracking list is empty




NASA's NSSDC Master Catalog

Two Line Element Set (TLE):
1 31898U 99025CKZ 18028.51428926 +.00000358 +00000-0 +93939-4 0  9993
2 31898 098.5668 131.2764 0203975 293.2323 064.7506 14.44316741561046
Source of the keplerian elements: AFSPC